GW4285 Weather Reports


time (UTC)temp
C
wind
direction
speed
KPH
gust
KPH
rain 1hr
cm
rain 24hr
cm
rain mn
cm
humidity
%
barometer
mb
20260506201946 18 253 1.6 6.4 0.00 0.00 0.00 79 1020.2
20260506201444 19 251 6.4 12.9 0.00 0.00 0.00 78 1020.2
20260506200940 19 259 3.2 11.3 0.00 0.00 0.00 78 1020.3
20260506200436 19 244 3.2 11.3 0.00 0.00 0.00 79 1020.3
20260506195933 19 264 9.7 16.1 0.00 0.00 0.00 79 1020.4
20260506195430 19 232 8.0 12.9 0.00 0.00 0.00 78 1020.3
20260506194927 20 261 8.0 12.9 0.00 0.00 0.00 76 1020.3
20260506194424 18 269 8.0 12.9 0.00 0.00 0.00 78 1020.4
20260506193920 19 261 4.8 11.3 0.00 0.00 0.00 79 1020.4
20260506193418 20 264 0.0 4.8 0.00 0.00 0.00 81 1020.5
20260506192914 18 265 8.0 11.3 0.00 0.00 0.00 79 1020.6
20260506192411 19 263 1.6 4.8 0.00 0.00 0.00 79 1020.6
20260506191908 20 235 3.2 4.8 0.00 0.00 0.00 74 1020.5
20260506191404 20 232 4.8 4.8 0.00 0.00 0.00 71 1020.6
20260506190901 20 229 0.0 1.6 0.00 0.00 0.00 72 1020.7
20260506190357 20 228 0.0 8.0 0.00 0.00 0.00 71 1020.7
20260506185855 20 188 0.0 1.6 0.00 0.00 0.00 71 1020.7
20260506185352 20 214 1.6 8.0 0.00 0.00 0.00 73 1020.8
20260506184848 20 231 3.2 4.8 0.00 0.00 0.00 73 1020.7
20260506184345 20 231 4.8 6.4 0.00 0.00 0.00 75 1020.7
20260506183843 20 235 1.6 4.8 0.00 0.00 0.00 72 1020.7
20260506183338 19 232 0.0 6.4 0.00 0.00 0.00 74 1020.8
20260506182836 19 235 6.4 8.0 0.00 0.00 0.00 74 1020.7
20260506182333 18 214 1.6 4.8 0.00 0.00 0.00 78 1020.8
20260506181830 18 240 4.8 8.0 0.00 0.00 0.00 78 1020.8
20260506181328 18 240 0.0 1.6 0.00 0.00 0.00 78 1020.8
20260506180825 18 233 0.0 1.6 0.00 0.00 0.00 76 1020.7
20260506180321 18 240 1.6 6.4 0.00 0.00 0.00 78 1020.7
20260506175817 18 247 8.0 12.9 0.00 0.00 0.00 79 1020.7
20260506175314 18 241 4.8 8.0 0.00 0.00 0.00 78 1020.7
20260506174812 18 235 1.6 1.6 0.00 0.00 0.00 78 1020.7
20260506174309 17 233 3.2 4.8 0.00 0.00 0.00 81 1020.7
20260506173806 17 236 1.6 6.4 0.00 0.00 0.00 80 1020.6
20260506173303 17 242 1.6 4.8 0.00 0.00 0.00 81 1020.7
20260506172800 17 235 4.8 8.0 0.00 0.00 0.00 82 1020.7
20260506172256 17 243 4.8 6.4 0.00 0.00 0.00 82 1020.7
20260506171754 17 233 0.0 1.6 0.00 0.00 0.00 80 1020.7
20260506171251 17 239 3.2 4.8 0.00 0.00 0.00 81 1020.7
20260506170749 16 239 4.8 6.4 0.00 0.00 0.00 83 1020.8
20260506170245 16 239 4.8 6.4 0.00 0.00 0.00 84 1020.9
20260506165743 16 245 6.4 11.3 0.00 0.00 0.00 84 1020.8
20260506165240 16 238 1.6 6.4 0.00 0.00 0.00 84 1020.8
20260506164737 16 236 3.2 6.4 0.00 0.00 0.00 84 1020.8
20260506164234 16 236 0.0 1.6 0.00 0.00 0.00 83 1020.9
20260506163731 15 236 3.2 4.8 0.00 0.00 0.00 86 1020.8
20260506163226 15 239 6.4 6.4 0.00 0.00 0.00 85 1020.8
20260506162722 15 233 0.0 1.6 0.00 0.00 0.00 88 1020.8
20260506162220 14 236 1.6 4.8 0.00 0.00 0.00 89 1020.8
20260506161717 14 240 3.2 6.4 0.00 0.00 0.00 88 1020.7
20260506161214 14 238 1.6 6.4 0.00 0.00 0.00 89 1020.8
20260506160712 14 237 0.0 4.8 0.00 0.00 0.00 89 1020.7
20260506160208 14 233 1.6 4.8 0.00 0.00 0.00 89 1020.7
20260506155706 14 238 0.0 1.6 0.00 0.00 0.00 89 1020.7
20260506155203 14 234 0.0 0.0 0.00 0.00 0.00 91 1020.7
20260506153305 13 240 1.6 4.8 0.00 0.00 0.00 92 1020.6
20260506152802 13 240 0.0 0.0 0.00 0.00 0.00 93 1020.6
20260506152259 13 240 0.0 0.0 0.00 0.00 0.00 93 1020.6
20260506151758 12 239 0.0 0.0 0.00 0.00 0.00 94 1020.5
20260506151254 12 239 0.0 0.0 0.00 0.00 0.00 94 1020.6
20260506150751 12 240 0.0 0.0 0.00 0.00 0.00 94 1020.5
20260506150248 12 240 0.0 0.0 0.00 0.00 0.00 94 1020.6
20260506145745 12 239 0.0 0.0 0.00 0.00 0.00 95 1020.5
20260506145241 12 239 0.0 0.0 0.00 0.00 0.00 95 1020.5
20260506144739 12 240 0.0 0.0 0.00 0.00 0.00 95 1020.6
20260506144236 12 242 0.0 0.0 0.00 0.00 0.00 96 1020.5
20260506143733 12 242 0.0 0.0 0.00 0.00 0.00 96 1020.4
20260506143231 12 242 0.0 0.0 0.00 0.00 0.00 96 1020.4
20260506142729 12 242 0.0 0.0 0.00 0.00 0.00 96 1020.4
20260506142227 12 242 0.0 0.0 0.00 0.00 0.00 96 1020.5
20260506141725 12 242 0.0 0.0 0.00 0.00 0.00 97 1020.3
20260506141223 12 242 0.0 0.0 0.00 0.00 0.00 97 1020.4
20260506140720 11 242 0.0 0.0 0.00 0.00 0.00 97 1020.2
20260506140217 11 242 0.0 0.0 0.00 0.00 0.00 98 1020.1
20260506135713 11 242 0.0 0.0 0.00 0.00 0.00 98 1020.1
20260506135210 11 242 0.0 0.0 0.00 0.00 0.00 98 1020.1
20260506134707 11 242 0.0 0.0 0.00 0.00 0.00 98 1020.1
20260506134203 11 242 0.0 0.0 0.00 0.00 0.00 98 1020.1
20260506133700 11 242 0.0 0.0 0.00 0.00 0.00 98 1020.2
20260506133157 11 242 0.0 0.0 0.00 0.00 0.00 98 1020.1
20260506132654 11 242 0.0 0.0 0.00 0.00 0.00 98 1020.2
20260506132151 11 242 0.0 0.0 0.00 0.00 0.00 98 1020.0
20260506131649 11 241 0.0 0.0 0.00 0.00 0.00 98 1020.0
20260506131145 11 241 0.0 0.0 0.00 0.00 0.00 98 1020.0
20260506130641 11 242 0.0 0.0 0.00 0.00 0.00 98 1019.9
20260506130139 11 242 0.0 0.0 0.00 0.00 0.00 98 1020.1
20260506125637 11 242 0.0 0.0 0.00 0.00 0.00 98 1019.9
20260506125134 11 242 0.0 0.0 0.00 0.00 0.00 98 1019.8
20260506124632 11 242 0.0 0.0 0.00 0.00 0.00 98 1019.9
20260506124130 11 243 0.0 0.0 0.00 0.00 0.00 98 1019.9
20260506123627 11 243 0.0 0.0 0.00 0.00 0.00 98 1019.8
20260506123126 11 244 0.0 0.0 0.00 0.00 0.00 98 1019.9
20260506122622 11 244 0.0 0.0 0.00 0.00 0.00 98 1019.8
20260506122120 11 244 0.0 0.0 0.00 0.00 0.00 97 1019.7
20260506121617 11 244 0.0 0.0 0.00 0.00 0.00 98 1019.7
20260506121114 11 244 0.0 0.0 0.00 0.00 0.00 98 1019.7
20260506120612 11 244 0.0 0.0 0.00 0.00 0.00 98 1019.6
20260506120109 11 244 0.0 0.0 0.00 0.00 0.00 98 1019.6
20260506115607 11 244 0.0 0.0 0.00 0.00 0.00 98 1019.6
20260506115105 11 244 0.0 0.0 0.00 0.00 0.00 98 1019.6
20260506114602 11 244 0.0 0.0 0.00 0.00 0.00 98 1019.5
20260506114100 11 244 0.0 0.0 0.00 0.00 0.00 98 1019.5
20260506113558 11 244 0.0 0.0 0.00 0.00 0.00 98 1019.5
20260506113055 11 244 0.0 0.0 0.00 0.00 0.00 98 1019.5
20260506112551 11 244 0.0 0.0 0.00 0.00 0.00 98 1019.5
20260506112049 11 244 0.0 0.0 0.00 0.00 0.00 98 1019.4
20260506111547 11 244 0.0 0.0 0.00 0.00 0.00 98 1019.5
20260506111044 11 244 0.0 0.0 0.00 0.00 0.00 97 1019.5
20260506110541 11 244 0.0 0.0 0.00 0.00 0.00 98 1019.4
20260506110038 11 244 0.0 0.0 0.00 0.00 0.00 98 1019.4
20260506105534 11 244 0.0 0.0 0.00 0.00 0.00 98 1019.5
20260506105032 11 244 0.0 0.0 0.00 0.00 0.00 98 1019.4
20260506104530 11 244 0.0 0.0 0.00 0.00 0.00 98 1019.3
20260506104027 11 244 0.0 0.0 0.00 0.00 0.00 98 1019.3
20260506103524 11 244 0.0 0.0 0.00 0.00 0.00 98 1019.2
20260506103021 11 244 0.0 0.0 0.00 0.00 0.00 98 1019.2
20260506102520 11 244 0.0 0.0 0.00 0.00 0.00 97 1019.2
20260506102017 11 243 0.0 0.0 0.00 0.00 0.00 97 1019.2
20260506101513 11 255 0.0 0.0 0.00 0.00 0.00 97 1019.2
20260506101010 11 254 0.0 0.0 0.00 0.00 0.00 97 1019.3
20260506100508 11 236 0.0 0.0 0.00 0.00 0.00 97 1019.1
20260506100007 11 256 0.0 0.0 0.00 0.00 0.00 97 1019.0
20260506095505 11 256 0.0 0.0 0.00 0.00 0.00 97 1019.0
20260506095000 11 246 0.0 0.0 0.00 0.00 0.00 97 1019.1
20260506094459 11 246 0.0 0.0 0.00 0.00 0.00 97 1019.0
20260506093956 11 246 0.0 0.0 0.00 0.00 0.00 97 1019.0
20260506093454 11 246 0.0 0.0 0.00 0.00 0.00 96 1019.1
20260506092951 11 246 0.0 0.0 0.00 0.00 0.00 96 1019.0
20260506092449 11 246 0.0 0.0 0.00 0.00 0.00 96 1019.1
20260506091945 11 246 0.0 0.0 0.00 0.00 0.00 97 1019.1
20260506091444 11 246 0.0 0.0 0.00 0.00 0.00 96 1019.2
20260506090941 11 252 0.0 0.0 0.00 0.00 0.00 96 1019.1
20260506090439 11 249 0.0 0.0 0.00 0.00 0.00 96 1019.1
20260506085935 11 250 0.0 0.0 0.00 0.00 0.00 96 1019.2
20260506085432 11 257 0.0 0.0 0.00 0.00 0.00 96 1019.2
20260506084928 11 257 0.0 0.0 0.00 0.00 0.00 96 1019.3
20260506084425 11 257 0.0 0.0 0.00 0.00 0.00 96 1019.1
20260506083921 11 257 0.0 0.0 0.00 0.00 0.00 96 1019.2
20260506083419 11 257 0.0 0.0 0.00 0.00 0.00 96 1019.3
20260506082916 11 258 0.0 0.0 0.00 0.00 0.00 97 1019.3
20260506082413 11 259 0.0 0.0 0.00 0.00 0.00 96 1019.3
20260506081908 11 250 0.0 0.0 0.00 0.00 0.00 97 1019.2
20260506081407 11 258 0.0 0.0 0.00 0.00 0.00 97 1019.2
20260506080904 11 258 0.0 0.0 0.00 0.00 0.00 97 1019.2
20260506080400 11 259 0.0 0.0 0.00 0.00 0.00 97 1019.2
20260506073344 11 262 0.0 0.0 0.00 0.00 0.00 97 1018.9
20260506072841 11 264 0.0 0.0 0.00 0.00 0.00 97 1018.8
20260506072339 11 264 0.0 0.0 0.00 0.00 0.00 97 1018.8
20260506071837 11 263 0.0 1.6 0.00 0.00 0.00 97 1018.8
20260506071335 11 264 0.0 1.6 0.00 0.00 0.00 97 1018.8
20260506070831 11 261 0.0 0.0 0.00 0.00 0.00 97 1018.7
20260506070328 11 262 0.0 0.0 0.00 0.00 0.00 97 1018.6
20260506062306 11 253 0.0 0.0 0.00 0.08 0.08 97 1018.5
20260506061801 11 241 0.0 1.6 0.00 0.08 0.08 97 1018.3
20260506061258 11 251 0.0 0.0 0.00 0.08 0.08 97 1018.3
20260506060757 11 238 0.0 0.0 0.00 0.08 0.08 96 1018.2
20260506060254 11 281 0.0 1.6 0.00 0.08 0.08 96 1018.3
20260506051225 11 240 0.0 1.6 0.00 0.08 0.08 96 1017.9
20260506050724 11 238 0.0 0.0 0.00 0.08 0.08 96 1017.9
20260506050221 11 257 0.0 0.0 0.00 0.08 0.08 96 1017.8
20260506044712 11 261 0.0 0.0 0.00 0.08 0.08 96 1017.7
20260506044209 11 248 0.0 0.0 0.00 0.08 0.08 96 1017.7
20260506043706 11 241 1.6 4.8 0.00 0.08 0.08 96 1017.8
20260506043204 11 249 1.6 4.8 0.00 0.08 0.08 95 1017.6
20260506042703 11 235 1.6 4.8 0.00 0.08 0.08 95 1017.4
20260506042201 11 255 0.0 1.6 0.00 0.08 0.08 95 1017.5
20260506041659 11 245 1.6 6.4 0.00 0.08 0.08 95 1017.4
20260506041155 11 232 0.0 1.6 0.00 0.08 0.08 95 1017.3
20260506040653 11 261 1.6 4.8 0.00 0.08 0.08 95 1017.4
20260506040150 12 242 1.6 4.8 0.00 0.08 0.08 95 1017.3
20260506035647 12 237 0.0 4.8 0.00 0.08 0.08 94 1017.2
20260506035143 12 245 0.0 1.6 0.00 0.08 0.08 94 1017.1
20260506034640 12 231 0.0 4.8 0.00 0.08 0.08 94 1017.2
20260506034137 12 238 0.0 4.8 0.00 0.08 0.08 94 1017.1
20260506033635 12 241 0.0 6.4 0.00 0.08 0.08 93 1017.1
20260506033131 12 246 0.0 4.8 0.00 0.08 0.08 93 1017.0
20260506032629 12 197 0.0 6.4 0.00 0.08 0.08 93 1016.9
20260506032126 12 244 0.0 0.0 0.00 0.08 0.08 92 1016.6
20260506031623 12 248 4.8 4.8 0.00 0.08 0.08 91 1016.6
20260506031119 12 252 0.0 0.0 0.00 0.08 0.08 91 1016.5
20260506030618 12 246 0.0 0.0 0.00 0.08 0.08 91 1016.4
20260506030115 12 247 0.0 0.0 0.00 0.08 0.08 90 1016.4
20260506025612 12 225 0.0 1.6 0.00 0.08 0.08 89 1016.4
20260506025107 12 258 0.0 0.0 0.00 0.08 0.08 89 1016.3
20260506024605 12 263 0.0 4.8 0.00 0.08 0.08 88 1016.4
20260506024101 12 251 0.0 4.8 0.00 0.08 0.08 88 1016.3
20260506023557 13 281 8.0 8.0 0.00 0.08 0.08 87 1016.6
20260506023055 13 256 1.6 8.0 0.00 0.08 0.08 86 1016.3
20260506022552 13 253 16.1 17.7 0.00 0.08 0.08 85 1016.2
20260506022050 13 272 4.8 8.0 0.00 0.08 0.08 86 1016.2
20260506021547 13 248 8.0 12.9 0.00 0.08 0.08 85 1016.1
20260506021044 13 248 9.7 16.1 0.00 0.08 0.08 85 1016.2
20260506020542 13 248 11.3 16.1 0.00 0.08 0.08 85 1016.1
20260506020039 13 243 6.4 12.9 0.00 0.08 0.08 85 1016.0
20260506015536 13 258 6.4 12.9 0.00 0.08 0.08 83 1015.9
20260506015033 13 260 9.7 12.9 0.00 0.08 0.08 84 1016.0
20260506014530 13 258 11.3 12.9 0.00 0.08 0.08 83 1015.9
20260506014026 13 263 8.0 8.0 0.00 0.08 0.08 83 1015.8
20260506013525 14 230 4.8 6.4 0.00 0.08 0.08 83 1015.8
20260506013021 14 260 0.0 8.0 0.00 0.08 0.08 82 1015.8
20260506012517 14 275 8.0 11.3 0.00 0.08 0.08 83 1015.7
20260506012014 14 251 1.6 11.3 0.00 0.08 0.08 83 1015.7
20260506011512 14 276 6.4 8.0 0.00 0.08 0.08 82 1015.7
20260506011008 13 276 3.2 8.0 0.00 0.08 0.08 83 1015.7
20260506010507 13 271 3.2 16.1 0.00 0.08 0.08 83 1015.8
20260506010003 14 238 3.2 8.0 0.00 0.08 0.08 83 1015.8
20260506005500 14 279 9.7 12.9 0.00 0.08 0.08 82 1015.7
20260506004955 14 237 4.8 16.1 0.00 0.08 0.08 82 1015.8
20260506004454 14 240 14.5 17.7 0.00 0.08 0.08 82 1015.7
20260506003949 15 259 12.9 16.1 0.00 0.08 0.08 81 1015.8
20260506003446 15 264 8.0 8.0 0.00 0.08 0.08 82 1015.6
20260506002942 15 252 8.0 17.7 0.00 0.08 0.08 82 1015.6
20260506002439 15 237 9.7 19.3 0.00 0.08 0.08 82 1015.5
20260506001934 15 268 3.2 6.4 0.00 0.08 0.08 82 1015.4
20260506001432 15 256 8.0 11.3 0.00 0.08 0.08 81 1015.5
20260506000929 15 260 8.0 12.9 0.00 0.08 0.08 82 1015.5
20260506000426 15 272 4.8 11.3 0.00 0.08 0.08 81 1015.5
20260505235923 15 247 3.2 12.9 0.00 0.08 0.08 81 1015.4
20260505235421 15 240 4.8 12.9 0.00 0.08 0.08 81 1015.4
20260505234917 15 267 8.0 11.3 0.00 0.08 0.08 80 1015.4
20260505234415 15 259 9.7 16.1 0.00 0.08 0.08 81 1015.5
20260505233912 15 265 12.9 16.1 0.00 0.08 0.08 80 1015.4
20260505233409 15 240 11.3 17.7 0.00 0.08 0.08 80 1015.5
20260505232907 15 286 9.7 16.1 0.00 0.08 0.08 81 1015.3
20260505232404 15 248 11.3 17.7 0.00 0.08 0.08 81 1015.4
20260505231901 15 266 8.0 8.0 0.00 0.08 0.08 81 1015.3
20260505231358 15 239 8.0 12.9 0.00 0.08 0.08 81 1015.4
20260505230857 16 253 6.4 11.3 0.00 0.08 0.08 81 1015.4
20260505230354 16 260 1.6 8.0 0.00 0.08 0.08 81 1015.3
20260505225850 16 261 6.4 8.0 0.00 0.08 0.08 79 1015.4
20260505225348 16 249 3.2 11.3 0.00 0.08 0.08 80 1015.3
20260505224842 16 277 6.4 8.0 0.00 0.08 0.08 80 1015.3
20260505224341 17 245 1.6 1.6 0.00 0.08 0.08 79 1015.3
20260505223837 17 272 1.6 6.4 0.00 0.08 0.08 77 1015.4
20260505223334 17 261 1.6 4.8 0.00 0.08 0.08 78 1015.4
20260505222830 17 277 0.0 6.4 0.00 0.08 0.08 79 1015.4
20260505222326 16 259 1.6 8.0 0.00 0.08 0.08 78 1015.4
20260505221824 17 261 4.8 11.3 0.00 0.08 0.08 77 1015.4
20260505221320 17 253 1.6 11.3 0.00 0.08 0.08 78 1015.4
20260505220817 16 255 3.2 8.0 0.00 0.08 0.08 78 1015.4
20260505220314 16 265 6.4 8.0 0.00 0.08 0.08 79 1015.5
20260505215813 16 240 4.8 12.9 0.00 0.08 0.08 79 1015.4
20260505215310 16 272 4.8 8.0 0.00 0.08 0.08 79 1015.6
20260505214808 16 263 4.8 6.4 0.00 0.08 0.08 80 1015.5
20260505214305 16 260 8.0 11.3 0.00 0.08 0.08 80 1015.5
20260505213802 16 243 9.7 11.3 0.00 0.08 0.08 79 1015.7
20260505213300 16 231 9.7 16.1 0.00 0.08 0.08 80 1015.7
20260505212755 16 224 0.0 8.0 0.00 0.08 0.08 79 1015.6
20260505212253 16 250 11.3 12.9 0.00 0.08 0.08 79 1015.8
20260505211749 16 250 1.6 11.3 0.00 0.08 0.08 79 1015.6
20260505211247 16 247 4.8 8.0 0.00 0.08 0.08 79 1015.8
20260505210743 16 257 8.0 11.3 0.00 0.08 0.08 79 1015.8
20260505210240 16 245 4.8 11.3 0.00 0.08 0.08 78 1015.8
20260505205737 16 262 6.4 11.3 0.00 0.08 0.08 81 1015.8
20260505205235 16 270 0.0 0.0 0.00 0.08 0.08 80 1015.9
20260505204731 16 262 6.4 8.0 0.00 0.08 0.08 80 1015.8
20260505204229 16 237 0.0 1.6 0.00 0.08 0.08 78 1015.7
20260505203726 16 233 0.0 0.0 0.00 0.08 0.08 79 1015.9
20260505203223 16 234 0.0 6.4 0.00 0.08 0.08 80 1015.6
20260505202719 16 244 3.2 12.9 0.00 0.08 0.08 79 1015.7